Location: Strawberry
(45.6646°N, 111.9596°W)
Time: 22:32:40
(UTC+00:00)

Explorer 11/Cluster Stage 4 - Pass Details

Date: 06 October 2022
Orbit: 466 x 1248 km, 28.8° (Epoch: 28 November)

Event Time Altitude Azimuth Distance (km) Brightness Sun altitude
Rises 16:34:13 0° 208° (SSW) 4,092 10.4 27.6°
Reaches altitude 10° 16:38:57 10° 184° (S) 3,194 10.4 28.2°
Maximum altitude 16:42:26 13° 158° (SSE) 2,958 10.9 28.7°
Drops below altitude 10° 16:45:54 10° 132° (SE) 3,197 11.4 29.1°
Sets 16:50:37 0° 108° (ESE) 4,100 11.1 29.6°
